Amsterdam, Netherlands

11:33 PM CEST on October 14, 2019 (GMT +0200)
Schiphol

Weather History for EHAM - August, 2019

Change the Weather History Date:

Saturday, August 31, 2019

  Actual Average Record
Temperature  
Mean Temperature 68 °F -  
Max Temperature 81 °F 64 °F 84 °F (2005)
Min Temperature 55 °F 51 °F 46 °F (1998)
Cooling Degree Days 3    
Growing Degree Days 18 (Base 50)    
Moisture  
Dew Point 56 °F    
Average Humidity 66    
Maximum Humidity 92    
Minimum Humidity 30    
Precipitation  
Precipitation 0.08 in - - ()
Sea Level Pressure  
Sea Level Pressure 29.91 in    
Wind  
Wind Speed 5 mph ()    
Max Wind Speed 21 mph    
Max Gust Speed 20 mph    
Visibility 8.2 miles    
Events Rain    
Averages and records for this station are not official NWS values.
T = Trace of Precipitation, MM = Missing Value Source: Averaged Metar Reports

Daily Weather History Graph

Daily Weather History Graph

Search for Another Location

Airport or City:

Astronomy

Aug. 31, 2019 Rise Set
Actual Time 6:49 AM CEST 8:31 PM CEST
Civil Twilight 6:14 AM CEST 9:07 PM CEST
Nautical Twilight 5:29 AM CEST 9:51 PM CEST
Astronomical Twilight 4:40 AM CEST 10:40 PM CEST
Moon 7:47 AM CEST (8/31) 9:28 PM CEST (8/31)
Length of Visible Light 14h 53m
Length of Day
13h 41m
New Moon, 2% of the Moon is Illuminated
Aug 31
New Moon
Sep 6
First Quarter
Sep 14
Full
Sep 22
Last Quarter
Sep 28
New

Hourly Weather History & Observations

Time (CEST) Temp. Heat Index Dew Point Humidity Pressure Visibility Wind Dir Wind Speed Gust Speed Precip Events Conditions
12:00 AM 59 °F - 55 °F 82% 30.12 in 10 mi SE 2.2 mph - -   Partly Cloudy
12:25 AM 59.0 °F - 55.4 °F 88% 30.09 in - SE 2.3 mph - N/A   Clear
12:55 AM 59.0 °F - 55.4 °F 88% 30.09 in - SE 3.5 mph - N/A   Clear
1:25 AM 59.0 °F - 55.4 °F 88% 30.09 in - SSE 2.3 mph - N/A   Clear
1:55 AM 59.0 °F - 55.4 °F 88% 30.09 in - SSE 3.5 mph - N/A   Clear
2:00 AM 58 °F - 55 °F 88% 30.09 in 7 mi SSE 2.2 mph - -   Partly Cloudy
2:25 AM 59.0 °F - 55.4 °F 88% 30.06 in - SSE 3.5 mph - N/A   Clear
2:55 AM 57.2 °F - 53.6 °F 88% 30.06 in - SE 3.5 mph - N/A   Clear
3:00 AM 56 °F - 54 °F 92% 30.07 in 6 mi SE 2.2 mph - -   Partly Cloudy
3:25 AM 57.2 °F - 53.6 °F 88% 30.04 in - SE 3.5 mph - N/A   Clear
3:55 AM 57.2 °F - 53.6 °F 88% 30.04 in - SE 3.5 mph - N/A   Clear
4:00 AM 57 °F - 54 °F 85% 30.05 in 6 mi SSE 2.2 mph - -   Partly Cloudy
4:25 AM 57.2 °F - 53.6 °F 88% 30.04 in - SSE 3.5 mph - N/A   Clear
4:55 AM 57.2 °F - 53.6 °F 88% 30.01 in - SSE 5.8 mph - N/A   Clear
5:00 AM 57 °F - 54 °F 85% 30.03 in 6 mi SSE 6.7 mph - -   Mist
5:25 AM 57.2 °F - 53.6 °F 88% 30.01 in - SE 6.9 mph - N/A   Clear
5:55 AM 57.2 °F - 51.8 °F 82% 30.01 in - SE 4.6 mph - N/A   Clear
6:25 AM 55.4 °F - 51.8 °F 88% 30.01 in - SSE 3.5 mph - N/A   Clear
6:55 AM 57.2 °F - 51.8 °F 82% 29.98 in - SSE 3.5 mph - N/A   Clear
7:25 AM 57.2 °F - 51.8 °F 82% 29.98 in - SE 4.6 mph - N/A   Clear
7:55 AM 59.0 °F - 53.6 °F 82% 29.98 in - SE 3.5 mph - N/A   Clear
8:25 AM 60.8 °F - 53.6 °F 77% 29.98 in - Variable 2.3 mph - N/A   Clear
8:55 AM 64.4 °F - 55.4 °F 73% 29.98 in - Variable 2.3 mph - N/A   Clear
9:00 AM 64 °F - 55 °F 64% 29.97 in 7 mi South 2.2 mph - -   Overcast
9:55 AM 68.0 °F - 55.4 °F 64% 29.95 in - SSE 4.6 mph - N/A   Clear
10:00 AM 69 °F - 55 °F 51% 29.96 in 8 mi SSE 4.5 mph - -   Partly Cloudy
10:25 AM 69.8 °F - 55.4 °F 60% 29.95 in - SSE 5.8 mph - N/A   Clear
10:55 AM 71.6 °F - 55.4 °F 57% 29.92 in - South 6.9 mph - N/A   Clear
11:25 AM 73.4 °F - 53.6 °F 50% 29.92 in - South 6.9 mph - N/A   Clear
11:55 AM 75.2 °F - 55.4 °F 50% 29.92 in - South 8.1 mph - N/A   Clear
12:00 PM 75 °F - 52 °F 33% 29.92 in 9 mi South 6.7 mph - -   Partly Cloudy
12:25 PM 77.0 °F - 53.6 °F 44% 29.92 in - South 8.1 mph - N/A   Clear
12:55 PM 77.0 °F - 55.4 °F 47% 29.89 in - South 9.2 mph - N/A   Clear
1:00 PM 77 °F - 55 °F 37% 29.90 in 8 mi SSE 8.9 mph - -   Partly Cloudy
1:25 PM 77.0 °F - 57.2 °F 50% 29.89 in - SSE 10.4 mph - N/A   Clear
1:55 PM 78.8 °F - 55.4 °F 44% 29.86 in - South 10.4 mph - N/A   Clear
2:00 PM 78 °F - 56 °F 35% 29.88 in 8 mi South 8.9 mph - -   Partly Cloudy
2:25 PM 78.8 °F - 53.6 °F 42% 29.86 in - South 11.5 mph - N/A   Clear
2:55 PM 78.8 °F - 53.6 °F 42% 29.86 in - South 9.2 mph - N/A   Clear
3:00 PM 80 °F - 54 °F 30% 29.86 in 11 mi South 8.9 mph - -   Partly Cloudy
3:25 PM 78.8 °F - 55.4 °F 44% 29.83 in - South 9.2 mph - N/A   Clear
3:55 PM 80.6 °F 80.5 °F 55.4 °F 42% 29.80 in - South 8.1 mph - N/A   Clear
4:00 PM 81 °F - 55 °F 30% 29.82 in 11 mi SSE 8.9 mph - -   Partly Cloudy
4:25 PM 80.6 °F 80.5 °F 55.4 °F 42% 29.80 in - South 8.1 mph - N/A   Clear
4:55 PM 82.4 °F 82.0 °F 57.2 °F 42% 29.80 in - South 4.6 mph - N/A   Clear
5:25 PM 80.6 °F 80.8 °F 57.2 °F 45% 29.77 in - South 8.1 mph - N/A   Clear
5:55 PM 78.8 °F - 55.4 °F 44% 29.77 in - South 6.9 mph - N/A   Clear
6:00 PM 78 °F - 56 °F 36% 29.78 in 28 mi South 8.9 mph - -   Partly Cloudy
6:25 PM 78.8 °F - 55.4 °F 44% 29.77 in 6.2 mi South 4.6 mph - N/A   Partly Cloudy
6:55 PM 73.4 °F - 64.4 °F 73% 29.77 in 6.2 mi SSE 5.8 mph - N/A Rain Light Rain Showers
7:00 PM 73 °F - 64 °F 67% 29.76 in 13 mi SE 4.5 mph - - Rain Light Rain Showers
7:25 PM 71.6 °F - 64.4 °F 78% 29.74 in - ENE 3.5 mph - N/A   Clear
7:55 PM 71.6 °F - 60.8 °F 69% 29.77 in 6.2 mi Variable 3.5 mph - N/A   Partly Cloudy
8:00 PM 73 °F - 58 °F 49% 29.76 in 22 mi NW 4.5 mph - - Rain Light Rain Showers
8:25 PM 71.6 °F - 59.0 °F 64% 29.77 in 6.2 mi West 6.9 mph 19.6 mph N/A Rain Light Rain Showers
8:55 PM 68.0 °F - 59.0 °F 73% 29.77 in 6.2 mi West 8.1 mph - N/A Rain Light Rain Showers
9:00 PM 68 °F - 59 °F 66% 29.79 in 19 mi West 8.9 mph - - Rain Light Rain Showers
9:25 PM 68.0 °F - 60.8 °F 78% 29.77 in - West 20.7 mph - N/A   Clear
9:55 PM 68.0 °F - 62.6 °F 83% 29.80 in - West 18.4 mph - N/A   Clear
10:25 PM 66.2 °F - 62.6 °F 88% 29.80 in - West 13.8 mph - N/A   Clear
10:55 PM 66.2 °F - 62.6 °F 88% 29.80 in - West 10.4 mph - N/A   Clear
11:25 PM 66.2 °F - 62.6 °F 88% 29.80 in 6.2 mi West 9.2 mph - N/A   Partly Cloudy
11:55 PM 66.2 °F - 62.6 °F 88% 29.80 in 6.2 mi West 9.2 mph - N/A   Partly Cloudy